Temp
5 4 3 3 3 2 2 2 2 1 1 1 1 1 1 1 1 1 0 -0 -1 -2 -3 -3 -4 -4 -5 -5 -6 -5 -5 -6 -7 -7 -6 -6 -5 -5
3 3 2 2 2 2 2 2 1 1 1 1 1 1 1 1 1 0 -0 -1 -2 -3 -4 -4 -4 -4 -5 -5 -6 -6 -6 -6 -6 -7 -7 -7 -7 -6
2 3 2 2 2 2 1 1 1 1 1 1 0 0 0 0 -0 -0 -1 -1 -2 -3 -5 -4 -4 -4 -5 -6 -6 -6 -6 -6 -6 -6 -7 -8 -8 -7
2 2 2 2 2 2 1 1 1 1 1 0 0 0 -0 -0 -0 -1 -2 -2 -3 -3 -4 -4 -4 -4 -5 -6 -6 -7 -7 -7 -7 -7 -7 -9 -9 -8
2 2 2 2 1 1 1 1 1 0 0 0 -0 -0 -1 -1 -1 -2 -2 -3 -3 -4 -4 -4 -4 -5 -5 -6 -6 -6 -7 -7 -7 -8 -8 -8 -8 -9
2 1 1 1 1 0 0 0 -0 -0 -0 -1 -1 -2 -2 -2 -3 -3 -3 -3 -4 -5 -5 -5 -5 -5 -5 -6 -6 -6 -6 -7 -7 -7 -8 -8 -8 -8
1 1 1 0 0 0 -0 -0 -1 -1 -1 -1 -2 -2 -3 -3 -3 -4 -4 -5 -5 -5 -5 -5 -5 -6 -6 -6 -6 -6 -7 -7 -7 -7 -8 -8 -8 -8
1 1 0 -0 -0 -1 -1 -1 -1 -1 -2 -2 -3 -4 -4 -4 -4 -5 -5 -5 -6 -5 -5 -6 -6 -6 -6 -7 -6 -7 -7 -7 -7 -8 -8 -8 -8 -8
0 -0 -1 -2 -2 -2 -2 -2 -2 -2 -3 -3 -4 -4 -4 -4 -5 -5 -6 -6 -6 -6 -6 -6 -6 -7 -7 -7 -7 -7 -7 -7 -8 -8 -8 -8 -8 -8
-1 -2 -2 -2 -3 -3 -3 -3 -3 -3 -4 -4 -4 -4 -4 -5 -6 -6 -6 -6 -6 -6 -6 -7 -7 -7 -7 -8 -7 -7 -7 -8 -8 -8 -8 -8 -8 -8
-2 -2 -2 -3 -3 -4 -4 -5 -5 -5 -5 -5 -5 -5 -5 -5 -6 -6 -6 -6 -7 -6 -7 -8 -8 -8 -8 -8 -8 -8 -8 -8 -8 -8 -8 -8 -8 -8
-1 -2 -3 -4 -4 -5 -6 -7 -7 -6 -6 -6 -6 -6 -6 -6 -6 -6 -6 -7 -7 -7 -6 -8 -8 -8 -9 -8 -8 -9 -8 -9 -9 -8 -8 -8 -8 -8
-3 -3 -3 -4 -5 -6 -7 -7 -7 -7 -7 -7 -7 -7 -6 -6 -6 -6 -6 -6 -7 -7 -7 -8 -8 -9 -9 -9 -9 -9 -9 -9 -9 -9 -9 -8 -8 -8
-4 -5 -5 -5 -6 -6 -6 -6 -6 -7 -7 -7 -7 -6 -6 -7 -6 -6 -7 -7 -7 -7 -8 -8 -9 -9 -9 -9 -9 -9 -10 -10 -9 -9 -9 -9 -8 -8
-5 -6 -6 -6 -7 -7 -7 -7 -7 -7 -7 -7 -8 -7 -7 -7 -7 -7 -7 -7 -7 -8 -8 -8 -9 -9 -9 -10 -10 -10 -10 -10 -9 -9 -9 -9 -8 -8
-7 -7 -7 -8 -9 -9 -8 -8 -8 -7 -7 -7 -7 -7 -7 -7 -7 -7 -7 -7 -8 -8 -8 -8 -9 -9 -9 -10 -10 -10 -9 -10 -9 -9 -9 -9 -8 -8
-8 -8 -9 -10 -10 -10 -10 -10 -9 -8 -8 -7 -7 -7 -7 -7 -7 -7 -7 -8 -8 -8 -8 -9 -9 -9 -9 -9 -10 -9 -9 -10 -9 -9 -9 -8 -8 -8
-9 -10 -11 -11 -11 -12 -13 -12 -12 -11 -9 -9 -8 -7 -7 -7 -7 -7 -8 -8 -8 -8 -8 -9 -9 -9 -9 -9 -9 -9 -9 -9 -9 -9 -9 -9 -8 -8
-12 -12 -12 -12 -13 -13 -13 -14 -14 -13 -12 -11 -10 -8 -8 -8 -8 -7 -8 -8 -8 -8 -9 -9 -9 -9 -9 -9 -9 -9 -9 -9 -10 -10 -9 -9 -9 -8
-13 -13 -13 -14 -14 -14 -15 -15 -15 -15 -15 -13 -11 -11 -9 -8 -8 -7 -8 -8 -8 -8 -9 -9 -9 -9 -9 -9 -9 -9 -9 -9 -9 -9 -10 -9 -9 -9
-14 -14 -14 -15 -15 -16 -16 -16 -16 -16 -16 -15 -13 -12 -11 -10 -9 -8 -8 -8 -8 -8 -9 -9 -9 -9 -9 -9 -9 -9 -9 -9 -9 -9 -9 -9 -9 -8
-15 -16 -16 -16 -16 -17 -17 -17 -17 -17 -17 -17 -15 -14 -13 -12 -11 -9 -9 -8 -8 -9 -9 -9 -9 -10 -10 -10 -10 -10 -10 -9 -9 -9 -9 -9 -9 -9
-16 -17 -17 -17 -18 -18 -18 -18 -18 -18 -18 -18 -17 -16 -14 -13 -12 -11 -9 -8 -8 -9 -9 -10 -10 -10 -10 -10 -10 -10 -9 -9 -9 -9 -9 -9 -9 -9
Height
1536 1539 1539 1539 1539 1539 1538 1537 1535 1530 1528 1528 1528 1528 1526 1525 1523 1519 1516 1514 1510 1508 1507 1506 1504 1503 1501 1499 1496 1494 1492 1490 1488 1488 1488 1487 1487 1487
1535 1535 1535 1536 1536 1535 1533 1532 1531 1528 1522 1523 1521 1520 1520 1518 1517 1514 1511 1508 1504 1504 1503 1499 1499 1497 1495 1493 1490 1488 1485 1483 1481 1479 1479 1479 1479 1479
1530 1530 1530 1531 1531 1530 1528 1527 1525 1523 1518 1514 1515 1514 1512 1510 1509 1507 1504 1501 1499 1495 1497 1495 1492 1491 1489 1487 1485 1482 1478 1476 1474 1472 1471 1470 1470 1471
1524 1525 1525 1526 1526 1524 1522 1520 1518 1517 1515 1508 1507 1506 1504 1503 1501 1498 1496 1494 1491 1488 1490 1488 1486 1485 1483 1480 1479 1476 1474 1471 1469 1466 1464 1463 1462 1462
1519 1520 1520 1520 1519 1518 1516 1514 1512 1511 1509 1504 1499 1498 1497 1496 1492 1490 1488 1485 1483 1482 1483 1482 1480 1478 1476 1474 1473 1471 1468 1466 1464 1462 1459 1457 1455 1454
1514 1514 1514 1514 1512 1511 1509 1507 1505 1503 1500 1496 1492 1490 1490 1487 1484 1482 1479 1477 1475 1475 1475 1475 1474 1473 1471 1469 1467 1464 1462 1460 1458 1456 1453 1452 1450 1448
1508 1508 1508 1508 1506 1504 1502 1499 1498 1494 1491 1488 1484 1482 1480 1478 1477 1474 1472 1469 1468 1468 1469 1469 1467 1466 1465 1463 1461 1460 1457 1455 1452 1450 1448 1446 1444 1442
1502 1502 1501 1500 1498 1497 1495 1492 1490 1486 1482 1479 1475 1472 1470 1470 1469 1467 1465 1462 1461 1463 1463 1462 1461 1459 1458 1457 1456 1454 1451 1449 1447 1444 1442 1440 1439 1437
1495 1494 1493 1493 1492 1489 1486 1482 1478 1476 1474 1471 1466 1463 1461 1462 1461 1459 1458 1458 1456 1456 1456 1453 1454 1451 1451 1450 1450 1448 1446 1443 1441 1438 1436 1435 1434 1432
1488 1487 1485 1484 1483 1480 1475 1470 1467 1466 1463 1461 1457 1455 1453 1452 1452 1451 1450 1449 1449 1449 1450 1446 1447 1444 1444 1444 1443 1442 1439 1437 1435 1433 1431 1430 1429 1427
1480 1479 1477 1474 1472 1470 1466 1461 1456 1453 1452 1450 1448 1446 1443 1442 1443 1444 1443 1444 1442 1442 1442 1441 1439 1438 1438 1437 1437 1436 1434 1432 1430 1428 1426 1424 1423 1421
1472 1470 1469 1467 1463 1460 1457 1453 1448 1444 1441 1438 1437 1435 1435 1433 1433 1435 1436 1436 1436 1435 1435 1436 1435 1434 1431 1430 1430 1429 1427 1426 1424 1422 1420 1418 1417 1415
1464 1462 1460 1458 1455 1451 1449 1446 1442 1437 1432 1430 1428 1426 1425 1425 1425 1426 1427 1429 1429 1429 1430 1431 1430 1429 1428 1424 1423 1423 1422 1419 1417 1416 1414 1412 1411 1410
1458 1456 1453 1450 1447 1444 1441 1438 1434 1430 1426 1423 1420 1418 1417 1417 1417 1419 1418 1420 1421 1422 1424 1425 1424 1423 1422 1419 1417 1416 1415 1413 1412 1409 1407 1406 1405 1404
1453 1449 1446 1444 1440 1437 1434 1430 1427 1423 1420 1416 1413 1412 1412 1412 1411 1412 1413 1414 1415 1416 1417 1418 1418 1418 1417 1415 1412 1411 1409 1406 1405 1404 1402 1401 1399 1399
1446 1443 1440 1437 1434 1431 1427 1424 1421 1418 1414 1410 1407 1406 1406 1406 1406 1406 1407 1409 1409 1409 1411 1412 1412 1412 1411 1410 1409 1406 1405 1403 1400 1398 1396 1395 1394 1394
1439 1437 1435 1432 1428 1424 1421 1419 1416 1413 1409 1405 1402 1401 1401 1401 1400 1401 1402 1403 1403 1403 1404 1405 1406 1406 1405 1405 1404 1402 1400 1398 1396 1394 1393 1390 1389 1388
1434 1432 1431 1428 1425 1421 1418 1414 1412 1408 1404 1401 1398 1394 1394 1395 1395 1396 1396 1397 1397 1398 1398 1399 1401 1401 1400 1399 1399 1397 1396 1394 1393 1391 1389 1387 1384 1383
1431 1430 1427 1425 1422 1419 1416 1412 1408 1405 1401 1397 1394 1391 1389 1388 1388 1389 1390 1391 1391 1392 1393 1394 1395 1396 1396 1394 1395 1395 1393 1391 1389 1386 1385 1384 1381 1379
1427 1425 1422 1419 1417 1414 1411 1408 1404 1400 1397 1393 1390 1387 1384 1382 1382 1382 1382 1384 1385 1386 1387 1389 1390 1391 1391 1390 1390 1390 1389 1387 1385 1383 1382 1380 1378 1376
1422 1420 1417 1415 1413 1410 1408 1405 1402 1397 1393 1389 1386 1384 1381 1379 1377 1378 1377 1377 1379 1380 1382 1383 1386 1387 1387 1386 1385 1385 1384 1383 1382 1380 1379 1378 1375 1373
1417 1415 1413 1411 1409 1406 1403 1400 1397 1393 1389 1386 1383 1380 1377 1375 1373 1372 1371 1371 1372 1375 1377 1379 1381 1382 1382 1382 1381 1380 1380 1379 1379 1377 1377 1376 1375 1372
1412 1410 1409 1406 1403 1401 1398 1395 1392 1389 1386 1383 1380 1376 1373 1370 1369 1367 1367 1366 1368 1370 1372 1374 1376 1378 1378 1379 1378 1377 1377 1376 1375 1374 1374 1373 1373 1371
Wind_Speed
15 16 17 15 15 18 20 20 21 26 27 23 23 22 24 25 26 26 29 32 34 35 30 31 34 35 36 34 32 29 28 27 24 23 23 24 24 25
14 15 15 17 18 20 21 22 22 25 31 28 28 26 25 27 26 31 31 31 30 30 32 27 30 34 35 37 36 30 29 29 28 26 24 24 25 26
17 18 20 21 23 24 24 25 26 26 31 35 32 31 32 31 33 33 30 31 33 32 28 28 31 34 35 31 29 29 26 25 25 25 25 23 23 24
18 19 20 20 22 23 25 27 28 29 31 37 36 32 30 27 29 28 31 30 33 30 27 30 31 32 26 28 32 25 22 22 19 20 22 23 23 23
18 20 21 23 24 25 26 28 29 30 31 34 39 37 33 29 30 32 33 33 32 28 27 25 22 24 28 28 26 23 25 23 21 22 21 22 22 22
17 19 22 25 27 27 28 29 29 30 31 32 34 33 31 32 32 33 38 34 33 26 25 25 24 26 26 24 22 24 27 23 21 24 28 29 24 21
21 23 23 21 24 27 30 34 35 37 38 40 41 42 37 35 35 35 31 34 24 19 21 21 26 23 21 21 22 24 25 24 26 28 29 26 24 20
23 22 23 24 27 27 29 32 33 33 37 40 40 38 37 37 34 33 30 21 20 17 20 22 21 24 25 27 24 23 26 27 29 31 28 23 19 19
22 23 24 25 25 29 31 32 33 33 33 35 38 39 38 36 32 28 26 21 21 22 21 27 28 31 32 24 22 24 25 28 28 26 21 18 18 19
23 23 26 29 30 30 35 39 42 43 39 32 34 36 37 33 26 25 26 24 23 26 27 33 34 29 22 21 22 24 25 23 19 20 20 21 22 22
29 30 29 29 30 31 35 38 40 41 40 42 40 38 37 38 32 32 31 27 34 38 33 28 25 23 23 22 21 21 23 19 22 21 21 21 22 22
27 27 26 27 28 26 27 31 37 38 37 34 34 35 30 29 27 30 30 32 34 33 26 22 22 21 24 22 17 13 21 24 24 23 21 23 22 22
24 26 27 27 27 27 28 31 35 37 36 34 34 33 31 28 28 27 26 25 25 27 24 19 22 24 24 28 32 30 25 22 20 21 22 22 22 21
26 27 27 26 27 27 27 28 28 28 29 30 31 29 27 27 29 26 27 27 27 27 21 18 23 23 24 28 33 30 24 23 22 21 21 20 16 16
24 25 25 25 24 23 23 24 25 27 28 29 29 28 27 24 25 25 25 30 27 27 26 24 24 24 26 29 28 27 28 24 21 18 20 21 16 17
25 25 24 22 22 26 28 27 24 25 27 27 24 23 21 20 20 18 21 23 24 28 27 26 24 21 23 22 23 24 21 23 21 20 18 17 19 16
26 25 21 20 29 27 25 22 23 22 19 21 24 23 22 21 19 18 18 21 24 27 25 25 20 18 21 21 23 22 24 25 20 18 18 14 15 14
22 19 18 22 26 26 24 24 24 24 26 26 22 25 21 21 22 20 20 21 23 24 22 21 18 16 18 17 18 22 22 18 15 16 18 20 20 14
15 16 19 21 23 24 23 23 24 24 24 24 24 23 18 22 20 21 24 22 23 23 22 19 16 17 18 20 17 15 18 18 18 17 13 12 20 16
15 16 18 21 22 23 24 23 23 24 24 24 23 21 18 17 17 23 24 21 23 22 21 16 14 16 18 19 19 20 20 20 14 14 11 14 12 8
17 18 21 21 22 23 23 22 23 23 24 22 21 20 20 15 12 17 20 23 22 20 18 18 14 14 15 18 21 23 10 11 17 11 6 9 12 6
19 20 21 21 21 22 22 22 23 23 23 20 21 18 21 19 15 10 12 22 21 18 18 17 15 14 12 13 14 13 13 15 13 6 6 7 10 10
22 22 19 22 22 21 22 22 22 23 22 20 21 22 22 21 17 14 12 14 16 15 18 17 11 12 13 13 12 13 15 10 9 9 7 9 7 10
Wind_Direction
295 270 275 277 268 261 261 265 274 286 284 286 285 281 278 277 285 292 288 285 282 285 287 293 300 303 306 308 306 298 295 291 288 285 284 282 280 278
264 272 279 278 271 264 267 271 273 274 280 283 287 291 287 285 285 279 287 286 283 282 283 294 295 297 304 308 305 302 294 291 288 286 280 276 276 275
260 263 266 270 271 266 268 267 269 272 277 282 283 284 284 283 286 286 278 277 282 279 279 286 292 294 304 303 310 307 299 296 295 291 286 282 279 276
255 268 271 269 269 274 275 275 275 275 276 281 287 288 288 290 288 282 281 283 288 280 275 287 288 296 295 303 311 309 312 316 314 309 296 282 278 275
259 259 265 268 271 273 275 276 277 278 279 281 286 288 291 291 281 283 284 292 290 279 281 287 284 290 299 304 304 309 314 311 308 307 311 312 292 279
260 263 265 268 273 277 280 278 278 279 278 279 282 286 289 290 295 295 296 292 281 275 272 263 275 286 292 295 299 307 308 300 294 302 308 309 300 291
253 262 268 273 277 278 281 284 287 286 284 282 281 286 284 289 292 294 290 284 277 272 281 282 288 288 286 284 291 296 298 301 303 305 300 298 296 287
273 276 277 275 280 285 285 284 285 289 288 284 280 274 280 285 288 293 289 279 286 282 285 279 279 278 278 284 292 291 292 297 302 302 295 289 292 295
282 286 288 290 289 286 288 286 282 283 283 286 278 279 283 284 283 285 280 277 273 275 273 275 277 282 289 285 287 287 287 294 298 297 293 280 298 300
287 286 282 281 278 278 278 279 280 282 287 287 282 286 286 281 271 271 273 273 273 279 279 284 291 287 289 285 285 287 296 296 303 299 296 278 293 300
288 288 286 285 287 290 288 288 289 290 289 284 284 284 283 279 269 273 269 267 278 283 287 284 284 289 287 283 285 292 289 297 304 297 295 290 292 299
290 294 297 298 300 299 296 299 298 299 301 300 289 288 287 277 261 267 267 266 273 279 286 270 275 284 296 288 288 257 283 292 294 292 289 289 284 288
299 303 305 305 304 301 298 295 299 303 297 291 290 287 284 278 262 269 260 256 264 272 279 272 269 274 276 283 286 290 293 295 296 298 296 296 282 278
306 306 307 310 308 304 301 303 307 306 299 292 289 288 284 279 273 266 253 261 269 276 272 273 269 271 277 284 290 298 298 297 298 295 299 299 283 282
304 308 310 311 309 309 312 313 311 309 301 296 288 282 283 281 275 272 276 256 265 265 264 266 268 277 279 282 287 297 300 301 301 298 290 294 289 294
309 312 316 316 310 300 298 301 307 309 299 296 286 283 284 280 275 270 261 261 267 265 266 263 270 277 274 275 280 296 307 300 310 310 301 279 287 286
312 316 319 311 308 309 311 315 302 303 343 309 293 278 274 274 273 268 269 267 264 259 268 267 268 277 277 275 275 294 305 302 305 308 304 303 298 297
308 317 318 306 311 315 316 313 315 310 303 305 343 278 268 274 266 262 263 268 263 260 271 266 273 264 272 275 284 290 293 299 301 298 292 303 302 300
318 307 302 303 306 311 313 313 314 315 317 317 320 300 316 273 269 261 259 263 262 263 264 265 261 254 264 270 287 284 290 294 288 285 286 293 294 318
291 296 298 298 302 302 306 311 313 317 315 317 319 314 305 319 291 274 251 263 263 258 259 254 247 255 261 268 276 280 291 295 299 297 287 291 313 314
299 294 294 298 303 306 309 312 313 316 314 313 316 320 309 307 321 288 275 271 255 247 255 238 242 258 262 270 279 290 303 306 299 292 307 334 352 355
294 294 299 299 299 304 308 310 310 312 314 318 316 313 310 308 309 304 286 264 244 246 246 243 246 254 268 283 292 297 307 304 309 290 282 302 332 336
294 300 296 296 298 298 300 301 307 308 312 316 312 307 305 312 308 295 306 261 250 245 233 238 239 239 256 269 276 286 291 291 303 285 287 297 310 337